Stations météo

réclame
Mon MeteoGroup
Grottaglie, Italie (16324): Température de l'air & dewpoint: 16.09.2018 15:00:00 - 22.09.2018 15:00:00 (CEST)Grottaglie, Italie (16324): Vitesse du vent: 16.09.2018 15:00:00 - 22.09.2018 15:00:00 (CEST)Grottaglie, Italie (16324): Direction du vent: 16.09.2018 15:00:00 - 22.09.2018 15:00:00 (CEST)Grottaglie, Italie (16324): visibility: 16.09.2018 15:00:00 - 22.09.2018 15:00:00 (CEST)
Date & Time tt [°C] td [°C] ff [km/h] ff [knt] dd vv [km]
22.09.2018 15:00:00 29,0 17,0 8 4 SW 10
22.09.2018 14:00:00 29,0 18,0 8 4 SW 10
22.09.2018 13:00:00 27,0 18,0 8 4 WSW 10
22.09.2018 12:00:00 27,0 18,0 0 0 N 10
22.09.2018 11:00:00 27,0 20,0 5 3 - 10
22.09.2018 10:00:00 26,0 21,0 0 0 N 10
22.09.2018 09:00:00 24,0 20,0 0 0 N 10
22.09.2018 08:00:00 20,0 19,0 0 0 N 10
22.09.2018 07:00:00 - - - - - -
22.09.2018 06:00:00 - - - - - -
22.09.2018 05:00:00 - - - - - -
22.09.2018 04:00:00 - - - - - -
22.09.2018 03:00:00 - - - - - -
22.09.2018 02:00:00 - - - - - -
22.09.2018 01:00:00 - - - - - -
22.09.2018 00:00:00 - - - - - -
21.09.2018 23:00:00 - - - - - -
21.09.2018 22:00:00 - - - - - -
21.09.2018 21:00:00 - - - - - -
21.09.2018 20:00:00 24,0 18,0 0 0 N 10
21.09.2018 19:00:00 26,0 18,0 9 5 S 10
21.09.2018 18:00:00 27,0 17,0 13 7 ESE 10
21.09.2018 17:00:00 26,0 18,0 26 14 E 10
21.09.2018 16:00:00 29,0 18,0 13 7 SW 10
21.09.2018 15:00:00 29,0 19,0 13 7 SSW 10
21.09.2018 14:00:00 29,0 18,0 11 6 SW 10
21.09.2018 13:00:00 29,0 16,0 8 4 SSE 10
21.09.2018 12:00:00 28,0 17,0 5 3 NNE 10
21.09.2018 11:00:00 27,0 19,0 0 0 N 10
21.09.2018 10:00:00 26,0 20,0 0 0 N 10
21.09.2018 09:00:00 23,0 20,0 0 0 N 10
21.09.2018 08:00:00 21,0 19,0 0 0 N 10
21.09.2018 07:00:00 - - - - - -
21.09.2018 06:00:00 - - - - - -
21.09.2018 05:00:00 - - - - - -
21.09.2018 04:00:00 - - - - - -
21.09.2018 03:00:00 - - - - - -
21.09.2018 02:00:00 - - - - - -
21.09.2018 01:00:00 - - - - - -
21.09.2018 00:00:00 - - - - - -
20.09.2018 23:00:00 - - - - - -
20.09.2018 22:00:00 23,0 20,0 13 7 N 10
20.09.2018 21:00:00 23,0 19,0 5 3 N 10
20.09.2018 20:00:00 23,0 19,0 8 4 N 10
20.09.2018 19:00:00 26,0 19,0 11 6 NNE 10
20.09.2018 18:00:00 - - - - - -
20.09.2018 17:00:00 28,0 19,0 16 9 NE 10
20.09.2018 16:00:00 29,0 19,0 16 9 N 10
20.09.2018 15:00:00 28,0 19,0 16 9 NNW 10
20.09.2018 14:00:00 29,0 17,0 8 4 ESE 10
20.09.2018 13:00:00 29,0 19,0 9 5 NE 10
20.09.2018 12:00:00 28,0 19,0 5 3 N 10
20.09.2018 11:00:00 27,0 18,0 5 3 N 10
20.09.2018 10:00:00 27,0 19,0 4 2 - 10
20.09.2018 09:00:00 25,0 20,0 0 0 N 10
20.09.2018 08:00:00 23,0 20,0 0 0 N 10
20.09.2018 07:00:00 - - - - - -
20.09.2018 06:00:00 - - - - - -
20.09.2018 05:00:00 - - - - - -
20.09.2018 04:00:00 - - - - - -
20.09.2018 03:00:00 - - - - - -
20.09.2018 02:00:00 - - - - - -
20.09.2018 01:00:00 - - - - - -
20.09.2018 00:00:00 - - - - - -
19.09.2018 23:00:00 - - - - - -
19.09.2018 22:00:00 - - - - - -
19.09.2018 21:00:00 - - - - - -
19.09.2018 20:00:00 26,0 15,0 5 3 - 10
19.09.2018 19:00:00 27,0 15,0 8 4 SE 10
19.09.2018 18:00:00 28,0 17,0 8 4 W 10
19.09.2018 17:00:00 30,0 17,0 8 4 WSW 10
19.09.2018 16:00:00 30,0 17,0 9 5 WSW 10
19.09.2018 15:00:00 29,0 18,0 13 7 W 10
19.09.2018 14:00:00 29,0 18,0 5 3 WSW 10
19.09.2018 13:00:00 28,0 19,0 8 4 WSW 10
19.09.2018 12:00:00 29,0 17,0 0 0 N 10
19.09.2018 11:00:00 28,0 17,0 0 0 N 10
19.09.2018 10:00:00 26,0 19,0 4 2 - 10
19.09.2018 09:00:00 24,0 17,0 5 3 NNW 10
19.09.2018 08:00:00 20,0 17,0 5 3 N 10
19.09.2018 07:00:00 - - - - - -
19.09.2018 06:00:00 - - - - - -
19.09.2018 05:00:00 - - - - - -
19.09.2018 04:00:00 - - - - - -
19.09.2018 03:00:00 - - - - - -
19.09.2018 02:00:00 - - - - - -
19.09.2018 01:00:00 - - - - - -
19.09.2018 00:00:00 - - - - - -
18.09.2018 23:00:00 - - - - - -
18.09.2018 22:00:00 21,0 15,0 0 0 N 10
18.09.2018 21:00:00 23,0 15,0 0 0 N 10
18.09.2018 20:00:00 25,0 14,0 5 3 NE 10
18.09.2018 19:00:00 27,0 14,0 5 3 W 10
18.09.2018 18:00:00 30,0 11,0 8 4 SW 10
18.09.2018 17:00:00 31,0 12,0 8 4 SSW 10
18.09.2018 16:00:00 31,0 12,0 13 7 SSW 10
18.09.2018 15:00:00 31,0 15,0 13 7 WSW 10
18.09.2018 14:00:00 31,0 14,0 0 0 N 10
18.09.2018 13:00:00 30,0 14,0 0 0 N 10
18.09.2018 12:00:00 29,0 15,0 5 3 SSE 10
18.09.2018 11:00:00 28,0 15,0 0 0 N 10
18.09.2018 10:00:00 26,0 17,0 0 0 N 10
18.09.2018 09:00:00 24,0 17,0 0 0 N 10
18.09.2018 08:00:00 21,0 15,0 0 0 N 10
18.09.2018 07:00:00 - - - - - -
18.09.2018 06:00:00 - - - - - -
18.09.2018 05:00:00 - - - - - -
18.09.2018 04:00:00 - - - - - -
18.09.2018 03:00:00 - - - - - -
18.09.2018 02:00:00 - - - - - -
18.09.2018 01:00:00 - - - - - -
18.09.2018 00:00:00 - - - - - -
17.09.2018 23:00:00 - - - - - -
17.09.2018 22:00:00 - - - - - -
17.09.2018 21:00:00 - - - - - -
17.09.2018 20:00:00 25,0 14,0 8 4 ESE 10
17.09.2018 19:00:00 27,0 13,0 9 5 E 10
17.09.2018 18:00:00 29,0 12,0 13 7 E 10
17.09.2018 17:00:00 31,0 14,0 9 5 E 10
17.09.2018 16:00:00 31,0 14,0 5 3 E 10
17.09.2018 15:00:00 31,0 14,0 5 3 ESE 10
17.09.2018 14:00:00 31,0 14,0 11 6 ESE 10
17.09.2018 13:00:00 31,0 14,0 4 2 - 10
17.09.2018 12:00:00 30,0 14,0 9 5 NE 10
17.09.2018 11:00:00 28,0 17,0 9 5 NE 10
17.09.2018 10:00:00 27,0 18,0 11 6 ENE 10
17.09.2018 09:00:00 24,0 19,0 0 0 N 10
17.09.2018 08:00:00 21,0 19,0 0 0 N 10
17.09.2018 07:00:00 - - - - - -
17.09.2018 06:00:00 - - - - - -
17.09.2018 05:00:00 - - - - - -
17.09.2018 04:00:00 - - - - - -
17.09.2018 03:00:00 - - - - - -
17.09.2018 02:00:00 - - - - - -
17.09.2018 01:00:00 - - - - - -
17.09.2018 00:00:00 - - - - - -
16.09.2018 23:00:00 - - - - - -
16.09.2018 22:00:00 - - - - - -
16.09.2018 21:00:00 - - - - - -
16.09.2018 20:00:00 24,0 19,0 0 0 N 10
16.09.2018 19:00:00 26,0 18,0 9 5 NNE 10
16.09.2018 18:00:00 28,0 17,0 15 8 NE 10
16.09.2018 17:00:00 28,0 19,0 21 11 NE 10
16.09.2018 16:00:00 29,0 18,0 22 12 NE 10
16.09.2018 15:00:00 30,0 18,0 16 9 NNE 10

tt = Température de l'air
td = dewpoint
ff = Vitesse du vent
dd = Direction du vent
vv = visibility

stations d'obs. à proximité